Location: Unspecified
(51.5147°N, 7.4673°E)
Time: 06:15:03
(UTC+01:00)

A-11 Canister half - Pass Details

Date: 18 February 2026
Orbit: 1524 x 1683 km, 47.3° (Epoch: 14 March)

Event Time Altitude Azimuth Distance (km) Brightness Sun altitude
Rises 18:03:36 0° 242° (WSW) 4,709 13.6 -2.8°
Reaches altitude 10° 18:06:42 10° 239° (WSW) 3,713 12.6 -3.2°
Maximum altitude 18:15:48 60° 163° (SSE) 1,708 9.3 -4.6°
Drops below altitude 10° 18:24:52 10° 86° (E) 3,700 10.3 -6.0°
Enters shadow 18:25:50 - 85° (E) 4,007 10.5 -6.1°
